STARLINK-35250, 65603

Orbit data source: Space-Track

STARLINK-35250, 65603 is a payload satellite owned by SpaceX/Seattle (US) in SSO that was launched on Sat, 13 Sep 2025 UTC via an FALCON 9 launch vehicle from the Air Force Eastern Test Range (AFETR). Payload-class satellites include a variety of spacecraft equipped with specific instruments for various scientific and technological missions. These include communications satellites like Starlink; space stations such as the ISS; scientific satellites like the Hubble; Earth observation satellites from companies like Planet Labs, Umbra, and HawkEye 360; GPS; miniature CubeSats for education and research; and military/defense satellites.

Loading next visibility...
Identifier
65603, 2025-207M
Orbit
SSO
Country
Flag of USUS
Related business
Manufacturer
SpaceX/Seattle
Mission
Operational Commercial Communications
Bus & Motor
STARLINK V2MO, Unknown motor
Mass
575 kg wet, ~530 kg dry
Launch date (UTC)
2025-09-13 (9 months ago)
Launch vehicle
FALCON 9
Launch site
Air Force Eastern Test Range (AFETR)
Object type
Payload
Rocket body
Debris
Shape & HBR
Box + 2 Pan, 17.7 m
Radar Cross Section
36.964 m², Large (>1 m²)

Expand to show TLE details & history
Last TLE update: 16 hours ago

TLE from 16 hours ago
0 STARLINK-35250
1 65603U 25207M   26166.44693072  .00003466  00000-0  24404-3 0  9998
2 65603  97.3579 234.1377 0001988 116.8203 243.3228 15.05658298 42971
Epoch: 2026-06-15T10:43Z
TLE epoch observation values (Epoch: 2026-06-15T10:43:34.814Z)
Latitude
Longitude
169.50945°
Altitude
553.177 km
Speed
7.585 km/s
True Right ascension
15h 36m 33s
True Declination
0° 00' 00"
Sunlit
Object was in full shadow at epoch
Visualization orbit readout
Latitude
Unknown
Longitude
Unknown
Altitude
Unknown
Speed
Unknown
Apparent Right ascension
Unknown
Apparent Declination
Unknown
Sunlit
N/A
Visualization observer readout
Local Sidereal Time
13:38:50
Azimuth
Unknown
Elevation
Unknown
Doppler factor
Unknown
Orbital elements
Apogee altitude
547.845 km
Perigee altitude
545.092 km
Semi-major axis
6,924.606 km
Eccentricity
0.0002
Inclination
97.3579°
RAAN
234.1377°
Arg. of periapsis
116.8203°
True anomaly
243.30245°
Mean anomaly
243.3228°
Eccentric anomaly
243.31262°
Mean motion
3.76661 °/min
Orbital period
95.58 mins
BSTAR
0.00024404
Loading maneuver chart data...
Computing Atmospheric mass density...
Loading historical data...
Loading historical data...
Loading historical data...
Loading historical data...
Loading historical data...
Loading historical data...
Loading historical data...

Documentation

Showing up to 5 results
|